RH
10 9 9 8 8 7 7 6 6 6 5 5 5 5 5 5 5 5 6 7 7 6 6 8 11 12 14 17 19 34 53 73 62 60 39 41 34 37 48 48 59 58 69 67 58
10 10 9 8 8 7 7 6 6 6 6 5 5 5 5 5 5 5 7 7 7 6 6 9 11 14 13 16 18 36 61 44 44 43 34 34 35 39 48 58 44 37 64 63 52
10 10 9 8 8 7 7 7 6 6 6 6 6 5 5 5 7 11 7 7 6 6 7 10 13 12 12 15 20 38 57 41 50 36 26 27 36 41 47 54 54 40 46 55 54
11 10 9 9 8 8 7 7 7 6 6 6 6 6 6 6 14 12 7 6 6 6 11 13 12 11 11 15 23 29 33 39 32 31 28 31 36 34 38 47 47 44 44 47 53
11 10 10 9 8 8 8 7 7 7 7 6 6 6 7 9 11 6 7 6 6 6 9 11 10 12 12 16 22 24 28 30 30 28 30 25 26 37 46 46 44 47 44 49 45
10 10 9 9 8 8 8 8 8 7 7 7 6 7 8 14 11 7 7 8 7 8 10 9 10 10 14 19 22 25 30 27 27 24 27 35 29 29 40 44 51 51 46 46 48
10 10 10 9 9 8 8 8 8 9 8 8 7 7 9 13 12 8 8 9 9 9 9 8 10 12 13 17 20 18 20 25 25 29 36 22 28 30 21 31 47 45 47 49 46
11 10 10 9 9 9 9 8 9 9 9 9 8 8 10 12 10 10 9 11 13 11 10 11 10 13 15 16 19 22 22 25 30 33 31 26 32 32 29 36 44 46 47 44 43
11 11 11 11 10 10 10 10 9 10 10 10 11 13 14 13 10 10 12 13 12 11 10 11 14 14 16 17 18 19 26 31 37 37 28 24 34 40 43 49 47 45 50 45 45
14 15 15 14 13 12 12 10 10 12 12 10 10 15 14 13 12 10 12 14 13 11 10 10 12 15 16 20 25 28 34 46 54 49 31 27 28 41 40 45 41 57 45 41 47
16 16 16 15 15 14 14 17 19 23 18 14 19 12 16 18 15 13 11 13 13 12 12 12 13 14 15 20 19 22 27 30 44 36 24 20 20 34 36 52 33 52 59 45 38
18 17 16 16 15 15 15 20 19 17 15 14 13 13 12 15 16 14 12 12 14 14 13 13 12 13 15 16 19 22 18 20 22 26 26 21 20 29 36 40 39 50 54 50 42
19 19 18 17 16 17 18 19 16 17 17 14 13 13 12 12 14 17 14 13 14 14 16 14 14 13 11 13 14 15 19 21 24 23 31 26 29 30 42 35 35 40 50 48 46
17 18 19 18 16 19 18 21 16 18 17 12 13 13 12 13 11 12 15 14 16 17 16 17 15 14 12 12 12 13 20 19 20 20 26 27 29 29 36 37 41 59 39 31 42
13 13 13 15 15 17 21 19 15 17 19 14 14 12 12 11 12 11 16 16 16 18 17 17 17 14 12 12 11 11 20 23 20 18 19 20 24 38 39 46 42 40 61 36 42
12 11 11 12 12 12 15 15 16 18 17 15 15 13 13 11 11 12 15 18 18 20 19 17 18 15 13 14 13 12 15 19 16 15 19 21 25 33 39 44 36 36 45 45 50
14 12 11 11 14 15 13 14 18 19 13 13 15 13 12 12 11 12 12 17 18 20 19 21 17 16 15 13 16 14 15 21 24 26 26 26 24 31 39 40 28 43 35 50 45
16 14 12 11 14 16 14 15 20 16 13 14 15 15 14 13 15 13 14 18 18 20 22 26 25 18 18 16 15 17 18 22 28 31 38 43 44 40 38 34 30 29 35 51 47
17 17 18 12 11 15 17 18 16 15 19 17 15 14 14 12 14 17 17 18 21 19 25 26 26 25 26 24 17 18 19 20 23 24 29 42 37 36 44 39 31 27 38 60 52
18 21 24 24 20 17 18 17 14 16 20 17 15 13 12 13 16 18 22 21 22 23 21 25 26 25 23 27 22 14 22 25 21 28 29 29 37 42 49 49 39 37 41 56 53
15 25 25 30 25 24 21 16 14 15 17 15 16 15 14 13 18 19 19 24 23 22 25 26 24 23 22 24 21 21 16 24 26 24 26 29 46 47 50 45 45 47 46 56 56
17 20 27 28 27 26 25 21 17 16 15 14 12 14 15 15 21 24 21 19 24 23 26 28 24 22 27 24 21 23 24 23 32 32 28 32 50 43 54 48 42 61 46 56 56
21 23 29 27 25 23 26 24 20 18 17 16 12 9 14 17 19 22 22 22 23 25 25 27 25 28 29 28 28 23 22 25 23 31 35 35 35 52 52 68 71 48 52 60 59
24 22 25 30 22 20 27 27 24 21 18 17 13 11 10 14 17 21 23 24 24 27 28 27 29 26 29 31 35 32 28 21 26 28 25 28 47 43 40 52 74 71 60 60 63
28 27 41 38 26 21 22 31 34 27 24 18 16 13 13 14 14 16 23 28 28 25 24 25 33 36 24 37 35 37 34 27 22 26 27 27 37 47 43 42 44 71 74 66 62
42 40 46 43 48 41 30 22 35 37 28 23 16 18 16 20 18 22 22 30 31 34 34 35 35 36 33 38 34 35 32 28 23 22 25 25 49 53 50 46 43 76 72 61 57
37 35 38 33 41 40 40 38 29 34 37 26 32 21 19 22 20 21 23 31 30 37 47 35 38 40 40 33 34 35 30 31 27 26 28 38 52 57 57 57 62 74 66 61 57